Home > Weather > Aberdeen > Past weeks

Flag for United Kingdom Past Weather in Aberdeen, Scotland, United Kingdom — Yesterday and Last 2 Weeks

Now
52 °F

Scattered showers. Scattered clouds.


Feels Like: 50 °F
Forecast: 48 / 60 °F
Wind: 6 mph from Northwest

Location: Aberdeen / Dyce

Current Time: Jul 1, 2016 at 7:24:43 AM

Latest Report: Jul 1, 2016 at 6:50 AM


Visibility: N/A

Pressure: 29.45 "Hg

Humidity: 94%

Dew Point: 50 °F

Location of AberdeenLocation

Past Weather in Aberdeen — Graph

°F

Aberdeen Temperature Yesterday

Maximum temperature yesterday: 63 °F (at 1:20 PM)
Minimum temperature yesterday: 48 °F (at 4:20 AM)
Average temperature yesterday: 56 °F

High & Low Weather Summary for the Past Weeks

 TemperatureHumidityPressure
High68 °F (Jun 23, 11:20 AM)100% (Jun 16, 11:50 PM)30.15 "Hg (Jun 16, 11:50 PM)
Low43 °F (Jun 19, 12:50 AM)52% (Jun 20, 3:20 PM)29.45 "Hg (Jul 1, 3:50 AM)
Average56 °F80%29.83 "Hg
* Reported Jun 16 6:20 AM — Jul 1 6:20 AM, Aberdeen, Weather by CustomWeather, © 2016

Note: Actual official high and low records may vary slightly from our data, if they occured in-between our weather recording intervals... More about our weather records

Advertising

Aberdeen Weather History for the Previous 24 Hours

Scroll right to see more
 ConditionsComfort  
Time TempWeatherWind HumidityBarometerVisibility
6:20 AM
Fri, Jul 1
52 °FLight rain. Broken clouds.6 mph94%29.45 "HgN/A
5:50 AM52 °FLight rain. Broken clouds.6 mph94%29.45 "Hg5 mi
5:20 AM50 °FLight rain. Broken clouds.3 mph94%29.45 "Hg5 mi
4:50 AM50 °FLight rain. Passing clouds.3 mph94%29.45 "Hg5 mi
4:20 AM50 °FLight rain. Mostly cloudy.2 mph94%29.45 "HgN/A
3:50 AM52 °FLight rain. Passing clouds.5 mph88%29.45 "Hg5 mi
3:20 AM52 °FPassing clouds.6 mph88%29.47 "HgN/A
2:50 AM52 °FClear.7 mph88%29.47 "Hg10 mi
2:20 AM52 °FClear.7 mph88%29.47 "Hg10 mi
1:50 AM52 °FCool.7 mph88%29.47 "HgN/A
1:20 AM52 °FClear.7 mph88%29.47 "Hg10 mi
12:50 AM54 °FClear.6 mph82%29.47 "Hg10 mi
12:20 AM54 °FClear.8 mph82%29.50 "Hg10 mi
11:50 PM
Thu, Jun 30
54 °FCool.8 mph82%29.50 "HgN/A
11:20 PM54 °FPassing clouds.8 mph82%29.50 "HgN/A
10:50 PM55 °FScattered clouds.9 mph77%29.53 "HgN/A
10:20 PM55 °FPassing clouds.8 mph77%29.53 "HgN/A
9:50 PM55 °FPassing clouds.8 mph77%29.53 "HgN/A
9:20 PM55 °FSunny.8 mph77%29.53 "Hg10 mi
8:50 PM57 °FScattered clouds.9 mph72%29.53 "HgN/A
8:20 PM57 °FScattered clouds.8 mph72%29.53 "HgN/A
7:50 PM57 °FSunny.7 mph72%29.53 "Hg10 mi
7:20 PM59 °FPassing clouds.10 mph63%29.53 "HgN/A
6:50 PM59 °FSunny.8 mph68%29.53 "Hg10 mi
6:20 PM59 °FPassing clouds.10 mph63%29.53 "HgN/A
5:50 PM59 °FPassing clouds.8 mph63%29.56 "HgN/A
5:20 PM59 °FSunny.12 mph63%29.56 "Hg10 mi
4:50 PM59 °FPassing clouds.14 mph68%29.56 "HgN/A
4:20 PM61 °FPassing clouds.12 mph63%29.56 "HgN/A
3:50 PM61 °FPassing clouds.14 mph59%29.56 "HgN/A
3:20 PM61 °FPassing clouds.15 mph63%29.53 "HgN/A
2:50 PM61 °FPassing clouds.12 mph63%29.53 "HgN/A
2:20 PM61 °FScattered clouds.9 mph68%29.53 "HgN/A
1:50 PM61 °FRain showers. Scattered clouds.13 mph68%29.53 "HgN/A
1:20 PM63 °FScattered showers. Scattered clouds.10 mph68%29.53 "HgN/A
12:50 PM61 °FScattered showers. Scattered clouds.8 mph72%29.53 "HgN/A
12:20 PM57 °FSprinkles. Scattered clouds.8 mph82%29.56 "HgN/A
11:50 AM59 °FScattered clouds.10 mph68%29.53 "HgN/A
11:20 AM61 °FPassing clouds.12 mph63%29.53 "HgN/A
10:50 AM57 °FSunny.12 mph72%29.53 "Hg10 mi
10:20 AM57 °FSunny.9 mph67%29.53 "Hg10 mi
9:50 AM59 °FPassing clouds.9 mph63%29.53 "HgN/A
9:20 AM59 °FSunny.9 mph59%29.53 "Hg10 mi
8:50 AM59 °FPassing clouds.9 mph59%29.53 "HgN/A
8:20 AM57 °FPassing clouds.8 mph67%29.53 "HgN/A
7:50 AM55 °FSunny.8 mph67%29.53 "Hg10 mi
7:20 AM54 °FPassing clouds.9 mph72%29.53 "HgN/A
Weather by CustomWeather, © 2016

See weather overviewHow to use our weather pages